TAM3843 SBTE-SBGR

Flight info

Callsign TAM3843
Flight time 2h 41m
Altitude 34000
Route GUEST UZ5 KIDUT DCT GEMIX DCT EPGEM DCT EDMUR DCT VUNOX
Aircraft A321/M-SDE2FGHIM1RWXYZ/SB1

Departure

Time 2026-05-08 22:05
Airport Senador Petrônio Portela Airport (SBTE)

Arrival

Time 2026-05-09 00:46
Airport São Paulo/Guarulhos–Governor André Franco Montoro International Airport (SBGR)
Time Latitude Longitude Altitude Speed Heading
2026-05-08 21:42 -5.06324 -42.82177 215 ft 0 kts 84°
2026-05-08 21:57 -5.06325 -42.82184 214 ft 4 kts 91°
2026-05-08 21:57 -5.06324 -42.82208 214 ft 4 kts 79°
2026-05-08 21:57 -5.06330 -42.82224 214 ft 4 kts
2026-05-08 21:57 -5.06352 -42.82218 214 ft 4 kts 337°
2026-05-08 21:58 -5.06374 -42.82211 216 ft 1 kts 355°
2026-05-08 21:58 -5.06378 -42.82210 220 ft 0 kts 355°
2026-05-08 22:00 -5.06377 -42.82210 220 ft 1 kts 355°
2026-05-08 22:00 -5.06368 -42.82229 216 ft 6 kts 276°
2026-05-08 22:00 -5.06369 -42.82297 215 ft 12 kts 267°
2026-05-08 22:01 -5.06316 -42.82339 218 ft 13 kts 353°
2026-05-08 22:01 -5.06208 -42.82352 214 ft 18 kts 353°
2026-05-08 22:01 -5.06068 -42.82366 216 ft 21 kts 354°
2026-05-08 22:01 -5.05924 -42.82380 214 ft 21 kts 353°
2026-05-08 22:02 -5.05782 -42.82397 214 ft 21 kts 353°
2026-05-08 22:02 -5.05636 -42.82413 212 ft 21 kts 355°
2026-05-08 22:02 -5.05487 -42.82428 218 ft 21 kts 354°
2026-05-08 22:02 -5.05342 -42.82444 216 ft 21 kts 354°
2026-05-08 22:03 -5.05198 -42.82459 215 ft 21 kts 353°
2026-05-08 22:03 -5.05101 -42.82455 220 ft 21 kts 21°
2026-05-08 22:03 -5.05042 -42.82465 216 ft 4 kts 260°
2026-05-08 22:03 -5.05088 -42.82469 222 ft 0 kts 173°
2026-05-08 22:04 -5.05091 -42.82469 221 ft 1 kts 174°
2026-05-08 22:04 -5.05191 -42.82459 217 ft 47 kts 174°
2026-05-08 22:04 -5.05768 -42.82398 218 ft 114 kts 174°
2026-05-08 22:04 -5.06707 -42.82298 217 ft 156 kts 173°
2026-05-08 22:05 -5.07799 -42.82176 672 ft 153 kts 173°
2026-05-08 22:05 -5.08850 -42.82072 1164 ft 152 kts 173°
2026-05-08 22:05 -5.09955 -42.81969 1661 ft 167 kts 173°
2026-05-08 22:05 -5.11160 -42.81852 1892 ft 182 kts 173°
2026-05-08 22:06 -5.12491 -42.81724 2015 ft 202 kts 173°
2026-05-08 22:06 -5.13952 -42.81809 2155 ft 222 kts 196°
2026-05-08 22:06 -5.15417 -42.82538 2377 ft 248 kts 207°
2026-05-08 22:06 -5.17013 -42.83421 2854 ft 266 kts 207°
2026-05-08 22:07 -5.18640 -42.84316 3587 ft 269 kts 207°
2026-05-08 22:07 -5.20289 -42.85218 4311 ft 270 kts 206°
2026-05-08 22:07 -5.21944 -42.86117 4974 ft 272 kts 206°
2026-05-08 22:07 -5.23618 -42.87026 5648 ft 275 kts 206°
2026-05-08 22:08 -5.25309 -42.87944 6294 ft 278 kts 206°
2026-05-08 22:08 -5.27018 -42.88874 6862 ft 281 kts 206°
2026-05-08 22:08 -5.28753 -42.89818 7435 ft 286 kts 206°
2026-05-08 22:08 -5.30512 -42.90774 8050 ft 290 kts 205°
2026-05-08 22:09 -5.32300 -42.91742 8663 ft 294 kts 206°
2026-05-08 22:09 -5.34112 -42.92724 9218 ft 298 kts 206°
2026-05-08 22:09 -5.35945 -42.93718 9780 ft 302 kts 205°
2026-05-08 22:09 -5.37813 -42.94729 10147 ft 312 kts 206°
2026-05-08 22:10 -5.39783 -42.95796 10265 ft 331 kts 206°
2026-05-08 22:10 -5.41867 -42.96925 10391 ft 350 kts 206°
2026-05-08 22:10 -5.44057 -42.98114 10503 ft 367 kts 206°
2026-05-08 22:10 -5.46335 -42.99356 10830 ft 376 kts 206°
2026-05-08 22:11 -5.48645 -43.00618 11337 ft 380 kts 206°
2026-05-08 22:11 -5.50974 -43.01889 11871 ft 382 kts 207°
2026-05-08 22:11 -5.53316 -43.03168 12416 ft 384 kts 207°
2026-05-08 22:11 -5.55670 -43.04451 12935 ft 387 kts 207°
2026-05-08 22:12 -5.58043 -43.05742 13471 ft 389 kts 207°
2026-05-08 22:12 -5.60466 -43.07057 13958 ft 392 kts 207°
2026-05-08 22:12 -5.62869 -43.08362 14395 ft 395 kts 207°
2026-05-08 22:12 -5.65292 -43.09680 14840 ft 398 kts 207°
2026-05-08 22:13 -5.67729 -43.11004 15276 ft 401 kts 207°
2026-05-08 22:13 -5.70204 -43.12289 15724 ft 403 kts 206°
2026-05-08 22:13 -5.72729 -43.13538 16156 ft 406 kts 205°
2026-05-08 22:13 -5.75285 -43.14772 16579 ft 409 kts 205°
2026-05-08 22:14 -5.77863 -43.16008 17016 ft 412 kts 205°
2026-05-08 22:14 -5.80460 -43.17261 17452 ft 415 kts 205°
2026-05-08 22:14 -5.83075 -43.18535 17880 ft 419 kts 206°
2026-05-08 22:14 -5.85700 -43.19825 18291 ft 422 kts 206°
2026-05-08 22:15 -5.88341 -43.21130 18640 ft 424 kts 206°
2026-05-08 22:15 -5.91032 -43.22462 19010 ft 426 kts 206°
2026-05-08 22:15 -5.93699 -43.23783 19382 ft 429 kts 206°
2026-05-08 22:15 -5.96380 -43.25107 19748 ft 431 kts 206°
2026-05-08 22:16 -5.99076 -43.26436 20091 ft 433 kts 206°
2026-05-08 22:16 -6.01787 -43.27770 20437 ft 435 kts 206°
2026-05-08 22:16 -6.04510 -43.29111 20761 ft 437 kts 206°
2026-05-08 22:16 -6.07240 -43.30456 21098 ft 439 kts 205°
2026-05-08 22:17 -6.09983 -43.31808 21421 ft 440 kts 205°
2026-05-08 22:17 -6.12740 -43.33169 21731 ft 442 kts 205°
2026-05-08 22:17 -6.15508 -43.34539 22038 ft 444 kts 205°
2026-05-08 22:17 -6.18289 -43.35915 22351 ft 446 kts 205°
2026-05-08 22:18 -6.21083 -43.37295 22653 ft 448 kts 205°
2026-05-08 22:18 -6.23887 -43.38677 22940 ft 450 kts 205°
2026-05-08 22:18 -6.26705 -43.40057 23226 ft 452 kts 205°
2026-05-08 22:18 -6.29540 -43.41434 23493 ft 453 kts 205°
2026-05-08 22:19 -6.32387 -43.42812 23733 ft 455 kts 205°
2026-05-08 22:19 -6.35242 -43.44194 23975 ft 456 kts 205°
2026-05-08 22:19 -6.38105 -43.45579 24223 ft 457 kts 205°
2026-05-08 22:19 -6.40972 -43.46970 24483 ft 458 kts 205°
2026-05-08 22:20 -6.43848 -43.48371 24732 ft 459 kts 205°
2026-05-08 22:20 -6.46727 -43.49774 24978 ft 460 kts 205°
2026-05-08 22:20 -6.49620 -43.51179 25215 ft 462 kts 205°
2026-05-08 22:20 -6.52512 -43.52586 25454 ft 463 kts 205°
2026-05-08 22:21 -6.55454 -43.54015 25696 ft 464 kts 205°
2026-05-08 22:21 -6.58327 -43.55411 25928 ft 465 kts 205°
2026-05-08 22:21 -6.61245 -43.56829 26161 ft 466 kts 205°
2026-05-08 22:21 -6.64171 -43.58252 26399 ft 467 kts 205°
2026-05-08 22:22 -6.67139 -43.59696 26635 ft 468 kts 205°
2026-05-08 22:22 -6.70078 -43.61124 26848 ft 470 kts 205°
2026-05-08 22:22 -6.73019 -43.62556 27085 ft 471 kts 205°
2026-05-08 22:22 -6.75971 -43.63996 27315 ft 472 kts 205°
2026-05-08 22:23 -6.78927 -43.65434 27543 ft 473 kts 205°
2026-05-08 22:23 -6.81893 -43.66876 27778 ft 474 kts 205°
2026-05-08 22:23 -6.84866 -43.68325 28005 ft 475 kts 205°
2026-05-08 22:23 -6.87842 -43.69776 28295 ft 474 kts 205°
2026-05-08 22:24 -6.90808 -43.71223 28635 ft 473 kts 205°
2026-05-08 22:24 -6.93760 -43.72666 28940 ft 472 kts 206°
2026-05-08 22:24 -6.96707 -43.74104 29268 ft 470 kts 206°
2026-05-08 22:24 -6.99651 -43.75536 29584 ft 469 kts 206°
2026-05-08 22:25 -7.02586 -43.76964 29918 ft 468 kts 206°
2026-05-08 22:25 -7.05515 -43.78390 30177 ft 467 kts 206°
2026-05-08 22:25 -7.08434 -43.79814 30431 ft 466 kts 206°
2026-05-08 22:25 -7.11345 -43.81236 30679 ft 465 kts 206°
2026-05-08 22:26 -7.14256 -43.82658 30934 ft 464 kts 206°
2026-05-08 22:26 -7.17159 -43.84074 31184 ft 464 kts 206°
2026-05-08 22:26 -7.20064 -43.85491 31438 ft 463 kts 206°
2026-05-08 22:26 -7.22962 -43.86902 31695 ft 462 kts 206°
2026-05-08 22:27 -7.25890 -43.88328 31959 ft 461 kts 206°
2026-05-08 22:27 -7.28823 -43.89644 32208 ft 461 kts 200°
2026-05-08 22:27 -7.31906 -43.90512 32453 ft 462 kts 191°
2026-05-08 22:27 -7.35102 -43.90895 32691 ft 463 kts 185°
2026-05-08 22:28 -7.38313 -43.91133 32921 ft 462 kts 186°
2026-05-08 22:28 -7.41515 -43.91373 33152 ft 462 kts 186°
2026-05-08 22:28 -7.44721 -43.91619 33381 ft 462 kts 186°
2026-05-08 22:28 -7.47923 -43.91866 33616 ft 461 kts 186°
2026-05-08 22:29 -7.51125 -43.92110 33841 ft 461 kts 186°
2026-05-08 22:29 -7.57530 -43.92596 33926 ft 462 kts 186°
2026-05-08 22:30 -7.63986 -43.93095 33928 ft 462 kts 186°
2026-05-08 22:30 -7.70386 -43.93591 33926 ft 462 kts 186°
2026-05-08 22:31 -7.76794 -43.94081 33932 ft 462 kts 186°
2026-05-08 22:31 -7.83197 -43.94567 33932 ft 462 kts 186°
2026-05-08 22:32 -7.89603 -43.95056 33937 ft 462 kts 186°
2026-05-08 22:32 -7.94929 -43.95465 33941 ft 462 kts 186°
2026-05-08 22:33 -8.02419 -43.96038 33949 ft 462 kts 186°
2026-05-08 22:33 -8.07751 -43.96439 33949 ft 462 kts 186°
2026-05-08 22:34 -8.14159 -43.96928 33949 ft 462 kts 186°
2026-05-08 22:34 -8.20562 -43.97426 33955 ft 462 kts 186°
2026-05-08 22:35 -8.26969 -43.97921 33955 ft 461 kts 186°
2026-05-08 22:35 -8.33410 -43.98410 33954 ft 461 kts 186°
2026-05-08 22:36 -8.39808 -43.98903 33955 ft 461 kts 186°
2026-05-08 22:36 -8.46209 -43.99391 33960 ft 461 kts 186°
2026-05-08 22:37 -8.52599 -43.99875 33960 ft 460 kts 186°
2026-05-08 22:37 -8.58985 -44.00370 33962 ft 460 kts 186°
2026-05-08 22:38 -8.65366 -44.00864 33968 ft 460 kts 186°
2026-05-08 22:38 -8.71741 -44.01349 33964 ft 459 kts 186°
2026-05-08 22:39 -8.78109 -44.01843 33965 ft 459 kts 186°
2026-05-08 22:39 -8.84468 -44.02341 33965 ft 458 kts 186°
2026-05-08 22:40 -8.90828 -44.02828 33968 ft 458 kts 186°
2026-05-08 22:40 -8.97178 -44.03310 33971 ft 457 kts 186°
2026-05-08 22:41 -9.03523 -44.03796 33973 ft 457 kts 186°
2026-05-08 22:41 -9.09859 -44.04287 33972 ft 457 kts 186°
2026-05-08 22:42 -9.16190 -44.04776 33977 ft 456 kts 186°
2026-05-08 22:42 -9.22518 -44.05261 33974 ft 456 kts 186°
2026-05-08 22:43 -9.28847 -44.05748 33983 ft 456 kts 186°
2026-05-08 22:43 -9.35162 -44.06242 33982 ft 455 kts 186°
2026-05-08 22:44 -9.41515 -44.06732 33983 ft 455 kts 186°
2026-05-08 22:44 -9.47825 -44.07219 33985 ft 454 kts 186°
2026-05-08 22:45 -9.54124 -44.07700 33984 ft 454 kts 186°
2026-05-08 22:45 -9.60428 -44.08193 33987 ft 454 kts 186°
2026-05-08 22:46 -9.66720 -44.08683 33983 ft 453 kts 186°
2026-05-08 22:46 -9.73011 -44.09166 33986 ft 453 kts 186°
2026-05-08 22:47 -9.79298 -44.09649 33979 ft 453 kts 186°
2026-05-08 22:47 -9.85579 -44.10132 33982 ft 453 kts 186°
2026-05-08 22:48 -9.91858 -44.10617 33978 ft 452 kts 186°
2026-05-08 22:48 -9.98130 -44.11102 33980 ft 452 kts 186°
2026-05-08 22:49 -10.04401 -44.11583 33978 ft 452 kts 186°
2026-05-08 22:49 -10.13794 -44.12319 33976 ft 451 kts 186°
2026-05-08 22:50 -10.20053 -44.12814 33977 ft 451 kts 186°
2026-05-08 22:50 -10.26313 -44.13299 33976 ft 451 kts 186°
2026-05-08 22:51 -10.32607 -44.13785 33980 ft 451 kts 186°
2026-05-08 22:51 -10.38856 -44.14263 33985 ft 450 kts 186°
2026-05-08 22:52 -10.45105 -44.14742 33992 ft 450 kts 186°
2026-05-08 22:52 -10.51348 -44.15226 33992 ft 449 kts 186°
2026-05-08 22:53 -10.57547 -44.15941 33993 ft 448 kts 190°
2026-05-08 22:53 -10.63687 -44.17018 33990 ft 447 kts 192°
2026-05-08 22:54 -10.69814 -44.18127 33995 ft 447 kts 191°
2026-05-08 22:54 -10.75949 -44.19154 33993 ft 447 kts 190°
2026-05-08 22:55 -10.82089 -44.20135 33993 ft 446 kts 190°
2026-05-08 22:55 -10.88224 -44.21113 33994 ft 446 kts 190°
2026-05-08 22:56 -10.94345 -44.22106 33991 ft 445 kts 190°
2026-05-08 22:56 -11.00457 -44.23108 33992 ft 445 kts 190°
2026-05-08 22:57 -11.06561 -44.24100 33987 ft 444 kts 190°
2026-05-08 22:57 -11.12660 -44.25089 33986 ft 443 kts 190°
2026-05-08 22:58 -11.18747 -44.26080 33985 ft 443 kts 190°
2026-05-08 22:58 -11.24835 -44.27068 33987 ft 443 kts 190°
2026-05-08 22:59 -11.30950 -44.28065 33987 ft 442 kts 190°
2026-05-08 22:59 -11.37020 -44.29061 33985 ft 441 kts 190°
2026-05-08 23:00 -11.43080 -44.30051 33985 ft 441 kts 190°
2026-05-08 23:00 -11.49130 -44.31041 33989 ft 440 kts 190°
2026-05-08 23:01 -11.55182 -44.32032 33990 ft 440 kts 190°
2026-05-08 23:01 -11.61224 -44.33021 33990 ft 439 kts 190°
2026-05-08 23:02 -11.67257 -44.34002 33993 ft 439 kts 190°
2026-05-08 23:02 -11.73276 -44.34985 33994 ft 438 kts 190°
2026-05-08 23:03 -11.79290 -44.35969 33996 ft 437 kts 190°
2026-05-08 23:03 -11.85299 -44.36957 33999 ft 437 kts 190°
2026-05-08 23:04 -11.91299 -44.37943 34000 ft 436 kts 190°
2026-05-08 23:04 -11.97294 -44.38926 34005 ft 436 kts 189°
2026-05-08 23:05 -12.03261 -44.39900 33987 ft 434 kts 189°
2026-05-08 23:05 -12.09218 -44.40874 33998 ft 434 kts 189°
2026-05-08 23:06 -12.15174 -44.41855 33989 ft 433 kts 189°
2026-05-08 23:06 -12.20164 -44.42676 33994 ft 433 kts 189°
2026-05-08 23:07 -12.26122 -44.43656 34006 ft 434 kts 189°
2026-05-08 23:07 -12.32090 -44.44637 34010 ft 434 kts 189°
2026-05-08 23:08 -12.38056 -44.45614 34018 ft 435 kts 189°
2026-05-08 23:08 -12.44029 -44.46596 34028 ft 435 kts 189°
2026-05-08 23:09 -12.49997 -44.47585 34035 ft 435 kts 189°
2026-05-08 23:09 -12.55972 -44.48573 34038 ft 435 kts 189°
2026-05-08 23:10 -12.61943 -44.49552 34026 ft 435 kts 189°
2026-05-08 23:10 -12.67921 -44.50533 34027 ft 435 kts 189°
2026-05-08 23:11 -12.73896 -44.51518 34028 ft 435 kts 189°
2026-05-08 23:11 -12.79873 -44.52505 34026 ft 435 kts 189°
2026-05-08 23:12 -12.85885 -44.53499 34030 ft 435 kts 189°
2026-05-08 23:12 -12.91857 -44.54490 34021 ft 435 kts 189°
2026-05-08 23:13 -12.97833 -44.55478 34021 ft 435 kts 189°
2026-05-08 23:13 -13.03807 -44.56463 34021 ft 434 kts 189°
2026-05-08 23:14 -13.09772 -44.57444 34018 ft 434 kts 189°
2026-05-08 23:14 -13.15738 -44.58431 34018 ft 434 kts 189°
2026-05-08 23:15 -13.21702 -44.59420 34016 ft 434 kts 189°
2026-05-08 23:15 -13.27667 -44.60413 34017 ft 434 kts 189°
2026-05-08 23:16 -13.33639 -44.61405 34013 ft 434 kts 189°
2026-05-08 23:16 -13.39607 -44.62387 34016 ft 434 kts 189°
2026-05-08 23:17 -13.45574 -44.63379 34021 ft 435 kts 190°
2026-05-08 23:17 -13.51548 -44.64375 34023 ft 435 kts 189°
2026-05-08 23:18 -13.57516 -44.65362 34032 ft 435 kts 190°
2026-05-08 23:18 -13.63490 -44.66356 34039 ft 435 kts 190°
2026-05-08 23:19 -13.69466 -44.67353 34044 ft 435 kts 190°
2026-05-08 23:19 -13.75440 -44.68350 34034 ft 435 kts 190°
2026-05-08 23:20 -13.81452 -44.69349 34039 ft 435 kts 190°
2026-05-08 23:20 -13.87432 -44.70337 34035 ft 435 kts 190°
2026-05-08 23:21 -13.93411 -44.71337 34034 ft 435 kts 190°
2026-05-08 23:21 -13.99394 -44.72331 34039 ft 435 kts 190°
2026-05-08 23:22 -14.05371 -44.73322 34037 ft 435 kts 190°
2026-05-08 23:22 -14.11348 -44.74322 34032 ft 435 kts 190°
2026-05-08 23:23 -14.17322 -44.75321 34035 ft 435 kts 190°
2026-05-08 23:23 -14.23297 -44.76321 34035 ft 435 kts 190°
2026-05-08 23:24 -14.29271 -44.77320 34038 ft 435 kts 190°
2026-05-08 23:24 -14.35246 -44.78322 34038 ft 435 kts 190°
2026-05-08 23:25 -14.41221 -44.79315 34037 ft 435 kts 190°
2026-05-08 23:25 -14.47191 -44.80314 34041 ft 435 kts 190°
2026-05-08 23:26 -14.53173 -44.81276 34044 ft 435 kts 189°
2026-05-08 23:26 -14.59158 -44.82181 34049 ft 435 kts 189°
2026-05-08 23:27 -14.65187 -44.83099 34047 ft 435 kts 190°
2026-05-08 23:27 -14.71173 -44.84033 34049 ft 435 kts 190°
2026-05-08 23:28 -14.77160 -44.84974 34051 ft 435 kts 190°
2026-05-08 23:28 -14.83149 -44.85917 34056 ft 435 kts 190°
2026-05-08 23:29 -14.89134 -44.86856 34057 ft 435 kts 190°
2026-05-08 23:29 -14.95116 -44.87790 34051 ft 435 kts 190°
2026-05-08 23:30 -15.01105 -44.88726 34048 ft 435 kts 190°
2026-05-08 23:30 -15.07097 -44.89665 34050 ft 435 kts 190°
2026-05-08 23:31 -15.13093 -44.90599 34050 ft 436 kts 190°
2026-05-08 23:31 -15.19087 -44.91530 34064 ft 436 kts 190°
2026-05-08 23:32 -15.25081 -44.92475 34048 ft 436 kts 190°
2026-05-08 23:32 -15.31085 -44.93414 34051 ft 437 kts 190°
2026-05-08 23:33 -15.37091 -44.94353 34053 ft 437 kts 190°
2026-05-08 23:33 -15.43103 -44.95289 34056 ft 437 kts 190°
2026-05-08 23:34 -15.49113 -44.96239 34045 ft 437 kts 190°
2026-05-08 23:34 -15.55167 -44.97197 34048 ft 437 kts 190°
2026-05-08 23:35 -15.61183 -44.98134 34048 ft 437 kts 190°
2026-05-08 23:35 -15.67204 -44.99075 34047 ft 438 kts 191°
2026-05-08 23:36 -15.73226 -45.00031 34048 ft 438 kts 191°
2026-05-08 23:36 -15.79249 -45.00982 34049 ft 438 kts 191°
2026-05-08 23:37 -15.85292 -45.01928 34004 ft 441 kts 192°
2026-05-08 23:37 -15.91385 -45.02886 34001 ft 445 kts 192°
2026-05-08 23:38 -15.97521 -45.03856 34009 ft 447 kts 192°
2026-05-08 23:38 -16.03668 -45.04828 34014 ft 448 kts 192°
2026-05-08 23:39 -16.08794 -45.05635 34023 ft 448 kts 192°
2026-05-08 23:39 -16.15009 -45.06617 34033 ft 449 kts 192°
2026-05-08 23:40 -16.21184 -45.07595 34040 ft 449 kts 192°
2026-05-08 23:40 -16.27363 -45.08570 34047 ft 449 kts 192°
2026-05-08 23:41 -16.33543 -45.09550 34052 ft 449 kts 192°
2026-05-08 23:41 -16.39712 -45.10539 34046 ft 449 kts 192°
2026-05-08 23:42 -16.45882 -45.11515 34050 ft 448 kts 192°
2026-05-08 23:42 -16.52059 -45.12487 34050 ft 449 kts 192°
2026-05-08 23:43 -16.58225 -45.13464 34051 ft 448 kts 192°
2026-05-08 23:43 -16.64394 -45.14445 34057 ft 448 kts 192°
2026-05-08 23:44 -16.70555 -45.15428 34058 ft 448 kts 192°
2026-05-08 23:44 -16.76723 -45.16406 34055 ft 448 kts 192°
2026-05-08 23:45 -16.82890 -45.17385 34055 ft 448 kts 192°
2026-05-08 23:45 -16.89061 -45.18369 34057 ft 448 kts 192°
2026-05-08 23:46 -16.95271 -45.19355 34059 ft 448 kts 192°
2026-05-08 23:46 -17.01429 -45.20335 34061 ft 448 kts 192°
2026-05-08 23:47 -17.07589 -45.21318 34065 ft 447 kts 192°
2026-05-08 23:47 -17.13745 -45.22303 34064 ft 447 kts 192°
2026-05-08 23:48 -17.19895 -45.23284 34067 ft 447 kts 192°
2026-05-08 23:48 -17.26048 -45.24267 34065 ft 447 kts 192°
2026-05-08 23:49 -17.32199 -45.25250 34069 ft 448 kts 192°
2026-05-08 23:49 -17.38358 -45.26236 34077 ft 448 kts 192°
2026-05-08 23:50 -17.44521 -45.27234 34082 ft 448 kts 192°
2026-05-08 23:50 -17.50679 -45.28230 34086 ft 448 kts 192°
2026-05-08 23:51 -17.56845 -45.29208 34083 ft 448 kts 192°
2026-05-08 23:51 -17.63007 -45.30186 34088 ft 448 kts 192°
2026-05-08 23:52 -17.69168 -45.31169 34087 ft 448 kts 192°
2026-05-08 23:52 -17.75333 -45.32162 34091 ft 448 kts 192°
2026-05-08 23:53 -17.81536 -45.33174 34095 ft 448 kts 193°
2026-05-08 23:53 -17.87658 -45.34160 34089 ft 448 kts 192°
2026-05-08 23:54 -17.93863 -45.35156 34092 ft 448 kts 192°
2026-05-08 23:55 -18.03105 -45.36643 34087 ft 447 kts 192°
2026-05-08 23:55 -18.09245 -45.37692 34081 ft 446 kts 194°
2026-05-08 23:56 -18.15338 -45.38891 34080 ft 446 kts 194°
2026-05-08 23:56 -18.21442 -45.40118 34081 ft 446 kts 194°
2026-05-08 23:57 -18.27547 -45.41304 34082 ft 446 kts 194°
2026-05-08 23:57 -18.33667 -45.42483 34074 ft 447 kts 194°
2026-05-08 23:58 -18.39820 -45.43664 34074 ft 446 kts 194°
2026-05-08 23:58 -18.45931 -45.44844 34073 ft 446 kts 194°
2026-05-08 23:59 -18.52042 -45.46024 34076 ft 446 kts 194°
2026-05-08 23:59 -18.58153 -45.47214 34071 ft 447 kts 194°
2026-05-09 00:00 -18.64269 -45.48398 34077 ft 447 kts 194°
2026-05-09 00:00 -18.70393 -45.49583 34078 ft 447 kts 194°
2026-05-09 00:01 -18.76512 -45.50771 34075 ft 447 kts 194°
2026-05-09 00:01 -18.82623 -45.51958 34076 ft 447 kts 194°
2026-05-09 00:02 -18.88749 -45.53141 34076 ft 448 kts 194°
2026-05-09 00:02 -18.94873 -45.54328 34082 ft 448 kts 194°
2026-05-09 00:03 -19.01003 -45.55527 34085 ft 448 kts 194°
2026-05-09 00:03 -19.07172 -45.56730 34086 ft 448 kts 194°
2026-05-09 00:04 -19.13298 -45.57922 34083 ft 448 kts 194°
2026-05-09 00:04 -19.19424 -45.59121 34088 ft 448 kts 194°
2026-05-09 00:05 -19.25548 -45.60318 34084 ft 448 kts 194°
2026-05-09 00:05 -19.31676 -45.61514 34084 ft 448 kts 194°
2026-05-09 00:06 -19.37810 -45.62711 34092 ft 448 kts 194°
2026-05-09 00:06 -19.43950 -45.63912 34091 ft 449 kts 194°
2026-05-09 00:07 -19.50085 -45.65110 34089 ft 449 kts 194°
2026-05-09 00:07 -19.56227 -45.66313 34091 ft 449 kts 194°
2026-05-09 00:08 -19.62366 -45.67514 34092 ft 449 kts 194°
2026-05-09 00:08 -19.68557 -45.68725 34097 ft 449 kts 194°
2026-05-09 00:09 -19.74700 -45.69932 34090 ft 449 kts 194°
2026-05-09 00:09 -19.79807 -45.70940 34091 ft 449 kts 194°
2026-05-09 00:10 -19.85954 -45.72149 34088 ft 449 kts 194°
2026-05-09 00:10 -19.92104 -45.73355 34087 ft 450 kts 194°
2026-05-09 00:11 -19.98254 -45.74566 34089 ft 450 kts 194°
2026-05-09 00:11 -20.04411 -45.75785 34088 ft 450 kts 195°
2026-05-09 00:12 -20.10612 -45.77012 34090 ft 450 kts 194°
2026-05-09 00:12 -20.16779 -45.78226 34091 ft 451 kts 194°
2026-05-09 00:13 -20.22945 -45.79435 34093 ft 451 kts 195°
2026-05-09 00:13 -20.29113 -45.80655 34092 ft 451 kts 195°
2026-05-09 00:14 -20.35285 -45.81887 34096 ft 451 kts 195°
2026-05-09 00:14 -20.41455 -45.83117 34099 ft 451 kts 195°
2026-05-09 00:15 -20.47627 -45.84346 34097 ft 451 kts 195°
2026-05-09 00:15 -20.53801 -45.85574 34097 ft 451 kts 195°
2026-05-09 00:16 -20.59970 -45.86794 34099 ft 451 kts 195°
2026-05-09 00:16 -20.66139 -45.88009 34099 ft 451 kts 195°
2026-05-09 00:17 -20.72308 -45.89234 34094 ft 451 kts 195°
2026-05-09 00:17 -20.78471 -45.90465 34099 ft 450 kts 195°
2026-05-09 00:18 -20.84672 -45.91705 34096 ft 450 kts 195°
2026-05-09 00:18 -20.90836 -45.92936 34091 ft 450 kts 195°
2026-05-09 00:19 -20.96997 -45.94168 34095 ft 450 kts 195°
2026-05-09 00:19 -21.03156 -45.95399 34089 ft 450 kts 195°
2026-05-09 00:20 -21.09315 -45.96625 34089 ft 450 kts 195°
2026-05-09 00:20 -21.15478 -45.97853 34088 ft 450 kts 195°
2026-05-09 00:21 -21.21635 -45.99091 34089 ft 451 kts 196°
2026-05-09 00:21 -21.27804 -46.00326 34082 ft 451 kts 196°
2026-05-09 00:22 -21.33966 -46.01563 34087 ft 451 kts 196°
2026-05-09 00:22 -21.40132 -46.02803 34088 ft 451 kts 196°
2026-05-09 00:23 -21.46296 -46.04037 34087 ft 451 kts 196°
2026-05-09 00:23 -21.52465 -46.05273 34089 ft 451 kts 196°
2026-05-09 00:24 -21.58633 -46.06512 34088 ft 451 kts 196°
2026-05-09 00:24 -21.64840 -46.07760 34091 ft 451 kts 196°
2026-05-09 00:25 -21.71003 -46.09007 34089 ft 451 kts 197°
2026-05-09 00:25 -21.77172 -46.10250 34079 ft 451 kts 197°
2026-05-09 00:25 -21.80260 -46.10871 33343 ft 456 kts 196°
2026-05-09 00:26 -21.83426 -46.11518 32186 ft 468 kts 196°
2026-05-09 00:26 -21.86640 -46.12176 31353 ft 473 kts 195°
2026-05-09 00:26 -21.89892 -46.12835 30421 ft 479 kts 195°
2026-05-09 00:26 -21.93198 -46.13501 29360 ft 486 kts 194°
2026-05-09 00:27 -21.96509 -46.14165 28841 ft 480 kts 194°
2026-05-09 00:27 -21.99785 -46.14822 28194 ft 478 kts 194°
2026-05-09 00:27 -22.03037 -46.15477 27587 ft 474 kts 194°
2026-05-09 00:27 -22.06270 -46.16133 26965 ft 471 kts 195°
2026-05-09 00:28 -22.09476 -46.16786 26350 ft 468 kts 194°
2026-05-09 00:28 -22.12661 -46.17434 25737 ft 465 kts 194°
2026-05-09 00:28 -22.15833 -46.18078 25136 ft 462 kts 194°
2026-05-09 00:28 -22.18992 -46.18720 24532 ft 460 kts 194°
2026-05-09 00:29 -22.22127 -46.19353 23936 ft 458 kts 194°
2026-05-09 00:29 -22.25254 -46.19987 23273 ft 456 kts 194°
2026-05-09 00:29 -22.28363 -46.20618 22700 ft 451 kts 194°
2026-05-09 00:29 -22.31427 -46.21240 22127 ft 446 kts 194°
2026-05-09 00:30 -22.34475 -46.21818 21585 ft 443 kts 192°
2026-05-09 00:30 -22.37551 -46.22323 21046 ft 439 kts 191°
2026-05-09 00:30 -22.40561 -46.22768 20524 ft 436 kts 191°
2026-05-09 00:30 -22.43563 -46.23192 19994 ft 434 kts 190°
2026-05-09 00:31 -22.46549 -46.23618 19474 ft 432 kts 190°
2026-05-09 00:31 -22.49528 -46.24059 18954 ft 431 kts 191°
2026-05-09 00:31 -22.52499 -46.24513 18428 ft 431 kts 190°
2026-05-09 00:31 -22.55433 -46.25079 17994 ft 423 kts 199°
2026-05-09 00:32 -22.58140 -46.26188 17732 ft 411 kts 205°
2026-05-09 00:32 -22.60764 -46.27369 17471 ft 407 kts 206°
2026-05-09 00:32 -22.63371 -46.28555 17225 ft 406 kts 206°
2026-05-09 00:32 -22.65964 -46.29742 16974 ft 404 kts 206°
2026-05-09 00:33 -22.68544 -46.30926 16724 ft 402 kts 206°
2026-05-09 00:33 -22.71116 -46.32106 16477 ft 401 kts 206°
2026-05-09 00:33 -22.73680 -46.33282 16233 ft 399 kts 206°
2026-05-09 00:33 -22.76233 -46.34454 15984 ft 398 kts 206°
2026-05-09 00:34 -22.78777 -46.35621 15737 ft 397 kts 206°
2026-05-09 00:34 -22.81319 -46.36788 15500 ft 396 kts 206°
2026-05-09 00:34 -22.83838 -46.37942 15228 ft 391 kts 206°
2026-05-09 00:34 -22.86339 -46.39087 14715 ft 388 kts 205°
2026-05-09 00:35 -22.88822 -46.40226 14184 ft 387 kts 205°
2026-05-09 00:35 -22.91302 -46.41366 13617 ft 387 kts 205°
2026-05-09 00:35 -22.93772 -46.42501 13064 ft 384 kts 206°
2026-05-09 00:35 -22.96221 -46.43625 12527 ft 382 kts 206°
2026-05-09 00:36 -22.98662 -46.44744 11996 ft 379 kts 206°
2026-05-09 00:36 -23.01086 -46.45856 11457 ft 377 kts 206°
2026-05-09 00:36 -23.03520 -46.46974 10926 ft 374 kts 206°
2026-05-09 00:36 -23.05869 -46.48059 10627 ft 365 kts 206°
2026-05-09 00:37 -23.08194 -46.49129 10511 ft 351 kts 206°
2026-05-09 00:37 -23.10402 -46.50143 10392 ft 339 kts 206°
2026-05-09 00:37 -23.12502 -46.51111 10282 ft 328 kts 207°
2026-05-09 00:37 -23.14565 -46.52064 10176 ft 318 kts 207°
2026-05-09 00:38 -23.16583 -46.52994 9972 ft 312 kts 207°
2026-05-09 00:38 -23.18588 -46.53927 9632 ft 311 kts 209°
2026-05-09 00:38 -23.20420 -46.55100 9412 ft 303 kts 217°
2026-05-09 00:38 -23.22192 -46.56321 9076 ft 301 kts 217°
2026-05-09 00:39 -23.23960 -46.57540 8799 ft 300 kts 217°
2026-05-09 00:39 -23.25717 -46.58752 8488 ft 298 kts 217°
2026-05-09 00:39 -23.27468 -46.59960 8133 ft 298 kts 217°
2026-05-09 00:39 -23.29218 -46.61168 7791 ft 299 kts 217°
2026-05-09 00:40 -23.30938 -46.62357 7539 ft 296 kts 217°
2026-05-09 00:40 -23.32699 -46.63572 7291 ft 294 kts 217°
2026-05-09 00:40 -23.34416 -46.64754 7133 ft 290 kts 217°
2026-05-09 00:41 -23.37717 -46.67027 6894 ft 272 kts 217°
2026-05-09 00:41 -23.38785 -46.67766 6814 ft 266 kts 218°
2026-05-09 00:41 -23.40375 -46.68756 6730 ft 263 kts 206°
2026-05-09 00:41 -23.42760 -46.68862 6553 ft 265 kts 164°
2026-05-09 00:42 -23.43878 -46.68263 6319 ft 268 kts 142°
2026-05-09 00:42 -23.45088 -46.66733 5888 ft 269 kts 121°
2026-05-09 00:42 -23.46134 -46.65029 5500 ft 271 kts 121°
2026-05-09 00:42 -23.46969 -46.63242 5108 ft 257 kts 102°
2026-05-09 00:43 -23.47165 -46.61387 4760 ft 238 kts 81°
2026-05-09 00:43 -23.46853 -46.59736 4471 ft 209 kts 68°
2026-05-09 00:43 -23.46466 -46.58294 4215 ft 189 kts 69°
2026-05-09 00:43 -23.46109 -46.56966 3990 ft 174 kts 69°
2026-05-09 00:44 -23.45778 -46.55739 3814 ft 162 kts 69°
2026-05-09 00:44 -23.45467 -46.54588 3609 ft 158 kts 70°
2026-05-09 00:44 -23.45164 -46.53467 3434 ft 155 kts 71°
2026-05-09 00:44 -23.44861 -46.52342 3225 ft 153 kts 72°
2026-05-09 00:45 -23.44558 -46.51221 3010 ft 154 kts 70°
2026-05-09 00:45 -23.44257 -46.50096 2783 ft 154 kts 70°
2026-05-09 00:45 -23.43962 -46.48980 2564 ft 153 kts 68°
2026-05-09 00:45 -23.43659 -46.47869 2467 ft 141 kts 71°
2026-05-09 00:46 -23.43435 -46.47069 2466 ft 71 kts 74°
2026-05-09 00:46 -23.43340 -46.46715 2468 ft 42 kts 73°
2026-05-09 00:46 -23.43252 -46.46435 2469 ft 37 kts 66°
2026-05-09 00:46 -23.43134 -46.46275 2471 ft 21 kts 44°
2026-05-09 00:47 -23.43026 -46.46162 2462 ft 22 kts 39°
2026-05-09 00:47 -23.42890 -46.46158 2465 ft 20 kts 344°
2026-05-09 00:47 -23.42766 -46.46198 2464 ft 17 kts 343°
2026-05-09 00:47 -23.42652 -46.46235 2464 ft 17 kts 342°
2026-05-09 00:48 -23.42624 -46.46312 2466 ft 11 kts 255°
2026-05-09 00:48 -23.42651 -46.46417 2465 ft 17 kts 253°
2026-05-09 00:48 -23.42692 -46.46561 2461 ft 22 kts 253°
2026-05-09 00:48 -23.42739 -46.46734 2467 ft 26 kts 253°
2026-05-09 00:49 -23.42786 -46.46912 2470 ft 16 kts 253°
2026-05-09 00:49 -23.42820 -46.47036 2467 ft 17 kts 253°
2026-05-09 00:49 -23.42855 -46.47161 2469 ft 17 kts 255°
2026-05-09 00:49 -23.42888 -46.47293 2465 ft 19 kts 254°
2026-05-09 00:50 -23.42925 -46.47429 2470 ft 19 kts 253°
2026-05-09 00:50 -23.42963 -46.47568 2464 ft 20 kts 253°
2026-05-09 00:50 -23.43003 -46.47715 2466 ft 20 kts 253°
2026-05-09 00:50 -23.43043 -46.47863 2467 ft 20 kts 253°
2026-05-09 00:51 -23.43083 -46.48012 2471 ft 21 kts 253°
2026-05-09 00:51 -23.43073 -46.48127 2466 ft 16 kts 314°
2026-05-09 00:51 -23.43049 -46.48237 2465 ft 16 kts 272°
2026-05-09 00:51 -23.43037 -46.48255 2472 ft 0 kts 341°
2026-05-09 00:52 -23.43029 -46.48256 2467 ft 2 kts 349°
2026-05-09 00:52 -23.43012 -46.48259 2465 ft 3 kts 352°
2026-05-09 00:52 -23.42987 -46.48263 2466 ft 4 kts 351°
2026-05-09 00:52 -23.42974 -46.48266 2466 ft 0 kts 351°